Location: Unspecified
(0.0000°N, 0.0000°E)
Time: 23:24:19
(UTC+00:00)

Transit 4A - Pass Details

Date: 25 April 2024
Orbit: 867 x 976 km, 66.8° (Epoch: 10 September)

Event Time Altitude Azimuth Distance (km) Brightness Sun altitude
Rises 21:25:27 0° 352° (N) 3,476 - -49.9°
Reaches altitude 10° 21:28:00 10° 357° (N) 2,553 - -50.5°
Maximum altitude 21:33:41 48° 71° (ENE) 1,171 - -51.8°
Drops below altitude 10° 21:39:33 10° 144° (SE) 2,636 - -53.2°
Sets 21:42:12 0° 149° (SSE) 3,599 - -53.8°
